Time,TemperatureF,DewpointF,PressureIn,WindDirection,WindDirectionDegrees,WindSpeedMPH,WindSpeedGustMPH,Humidity,HourlyPrecipIn,Conditions,Clouds,dailyrainin,SoftwareType,DateUTC
2013-08-27 00:13:00,67.0,64.0,30.11,NE,53,0.0,0.0,91,0.00,,,0.00,,2013-08-27 05:13:00,
2013-08-27 00:23:00,66.0,64.0,30.11,NE,52,0.0,0.0,92,0.00,,,0.00,,2013-08-27 05:23:00,
2013-08-27 00:43:00,66.0,63.0,30.10,ENE,65,0.0,0.0,91,0.00,,,0.00,,2013-08-27 05:43:00,
2013-08-27 00:52:00,66.0,64.0,30.10,ENE,65,0.0,0.0,92,0.00,,,0.00,,2013-08-27 05:52:00,
2013-08-27 01:12:00,66.0,64.0,30.09,ENE,65,0.0,0.0,93,0.00,,,0.00,,2013-08-27 06:12:00,
2013-08-27 01:22:00,65.0,63.0,30.09,ENE,65,0.0,0.0,93,0.00,,,0.00,,2013-08-27 06:22:00,
2013-08-27 01:42:00,65.0,63.0,30.09,ENE,65,0.0,0.0,94,0.00,,,0.00,,2013-08-27 06:42:00,
2013-08-27 01:52:00,66.0,64.0,30.08,ENE,76,0.0,0.0,94,0.00,,,0.00,,2013-08-27 06:52:00,
2013-08-27 02:12:00,65.0,64.0,30.08,ENE,76,0.0,0.0,95,0.00,,,0.00,,2013-08-27 07:12:00,
2013-08-27 02:22:00,65.0,64.0,30.08,ENE,76,0.0,-999.0,95,-99.99,,,-99.99,,2013-08-27 07:22:00,
2013-08-27 02:32:00,65.0,64.0,30.08,ENE,76,0.0,-999.0,95,-99.99,,,-99.99,,2013-08-27 07:32:00,
2013-08-27 02:42:00,65.0,64.0,30.08,ENE,76,0.0,-999.0,95,-99.99,,,-99.99,,2013-08-27 07:42:00,
2013-08-27 02:52:00,65.0,64.0,30.07,ENE,76,0.0,0.0,96,0.00,,,0.00,,2013-08-27 07:52:00,
2013-08-27 03:12:00,65.0,64.0,30.07,ENE,76,0.0,0.0,96,0.00,,,0.00,,2013-08-27 08:12:00,
2013-08-27 03:22:00,65.0,64.0,30.07,ENE,76,0.0,0.0,96,0.00,,,0.00,,2013-08-27 08:22:00,
2013-08-27 03:42:00,65.0,64.0,30.06,ENE,77,0.0,0.0,96,0.00,,,0.00,,2013-08-27 08:42:00,
2013-08-27 03:52:00,65.0,64.0,30.06,ENE,77,0.0,0.0,96,0.00,,,0.00,,2013-08-27 08:52:00,
2013-08-27 04:11:00,65.0,64.0,30.06,ENE,77,0.0,0.0,96,0.00,,,0.00,,2013-08-27 09:11:00,
2013-08-27 04:22:00,65.0,64.0,30.06,ENE,77,0.0,0.0,97,0.00,,,0.00,,2013-08-27 09:22:00,
2013-08-27 04:43:00,64.0,63.0,30.06,ENE,76,0.0,0.0,97,0.00,,,0.00,,2013-08-27 09:43:00,
2013-08-27 04:54:00,64.0,63.0,30.06,ENE,77,0.0,0.0,97,0.00,,,0.00,,2013-08-27 09:54:00,
2013-08-27 05:14:00,64.0,63.0,30.06,ENE,77,0.0,0.0,97,0.00,,,0.00,,2013-08-27 10:14:00,
2013-08-27 05:25:00,64.0,63.0,30.06,ENE,76,0.0,0.0,97,0.00,,,0.00,,2013-08-27 10:25:00,
2013-08-27 05:43:00,64.0,63.0,30.06,ENE,76,0.0,0.0,97,0.00,,,0.00,,2013-08-27 10:43:00,
2013-08-27 05:53:00,64.0,63.0,30.06,ENE,77,0.0,0.0,97,0.00,,,0.00,,2013-08-27 10:53:00,
2013-08-27 06:12:00,64.0,63.0,30.06,ENE,77,0.0,0.0,97,0.00,,,0.00,,2013-08-27 11:12:00,
2013-08-27 06:22:00,64.0,63.0,30.06,ENE,78,0.0,0.0,97,0.00,,,0.00,,2013-08-27 11:22:00,
2013-08-27 06:42:00,64.0,63.0,30.06,ENE,77,0.0,0.0,97,0.00,,,0.00,,2013-08-27 11:42:00,
2013-08-27 06:52:00,63.0,62.0,30.06,ENE,77,0.0,0.0,97,0.00,,,0.00,,2013-08-27 11:52:00,
2013-08-27 07:12:00,63.0,62.0,30.07,ENE,78,0.0,0.0,97,0.00,,,0.00,,2013-08-27 12:12:00,
2013-08-27 07:22:00,64.0,63.0,30.07,ENE,77,0.0,0.0,97,0.00,,,0.00,,2013-08-27 12:22:00,
2013-08-27 07:42:00,66.0,65.0,30.08,ENE,78,0.0,0.0,95,0.00,,,0.00,,2013-08-27 12:42:00,
2013-08-27 07:52:00,67.0,65.0,30.08,ENE,78,0.0,1.0,93,0.00,,,0.00,,2013-08-27 12:52:00,
2013-08-27 08:12:00,70.0,66.0,30.08,ENE,61,0.0,1.0,88,0.00,,,0.00,,2013-08-27 13:12:00,
2013-08-27 08:22:00,71.0,67.0,30.09,ESE,103,0.0,1.0,86,0.00,,,0.00,,2013-08-27 13:22:00,
2013-08-27 08:42:00,72.0,67.0,30.08,East,85,0.0,2.0,85,0.00,,,0.00,,2013-08-27 13:42:00,
2013-08-27 08:52:00,73.0,67.0,30.08,NE,40,0.0,3.0,82,0.00,,,0.00,,2013-08-27 13:52:00,
2013-08-27 09:11:00,73.0,67.0,30.08,East,89,0.0,1.0,81,0.00,,,0.00,,2013-08-27 14:11:00,
2013-08-27 09:22:00,73.0,67.0,30.08,SE,125,0.0,1.0,82,0.00,,,0.00,,2013-08-27 14:22:00,
2013-08-27 09:42:00,75.0,67.0,30.08,SE,125,1.0,4.0,77,0.00,,,0.00,,2013-08-27 14:42:00,
2013-08-27 09:53:00,77.0,68.0,30.08,SSW,198,0.0,4.0,75,0.00,,,0.00,,2013-08-27 14:53:00,
2013-08-27 10:11:00,79.0,70.0,30.08,SE,125,0.0,5.0,74,0.00,,,0.00,,2013-08-27 15:11:00,
2013-08-27 10:22:00,79.0,70.0,30.08,East,88,1.0,4.0,73,0.00,,,0.00,,2013-08-27 15:22:00,
2013-08-27 10:45:00,80.0,71.0,30.08,South,188,0.0,3.0,73,0.00,,,0.00,,2013-08-27 15:45:00,
2013-08-27 10:58:00,81.0,70.0,30.08,SE,138,0.0,4.0,70,0.00,,,0.00,,2013-08-27 15:58:00,
2013-08-27 11:17:00,83.0,73.0,30.07,SSE,160,0.0,2.0,71,0.00,,,0.00,,2013-08-27 16:17:00,
2013-08-27 11:28:00,82.0,72.0,30.07,ESE,103,0.0,3.0,71,0.00,,,0.00,,2013-08-27 16:28:00,
2013-08-27 11:46:00,81.0,71.0,30.07,East,85,0.0,2.0,71,0.00,,,0.00,,2013-08-27 16:46:00,
2013-08-27 11:55:00,82.0,72.0,30.06,East,82,1.0,5.0,71,0.00,,,0.00,,2013-08-27 16:55:00,
2013-08-27 12:13:00,83.0,70.0,30.06,NE,51,1.0,4.0,66,0.00,,,0.00,,2013-08-27 17:13:00,
2013-08-27 12:23:00,82.0,70.0,30.06,SSE,166,1.0,4.0,68,0.00,,,0.00,,2013-08-27 17:23:00,
2013-08-27 12:52:00,83.0,70.0,30.05,ESE,112,0.0,3.0,66,0.00,,,0.00,,2013-08-27 17:52:00,
2013-08-27 13:12:00,84.0,71.0,30.05,East,91,1.0,2.0,65,0.00,,,0.00,,2013-08-27 18:12:00,
2013-08-27 13:22:00,83.0,70.0,30.05,East,101,0.0,6.0,65,0.00,,,0.00,,2013-08-27 18:22:00,
2013-08-27 13:42:00,85.0,71.0,30.04,East,93,1.0,5.0,64,0.00,,,0.00,,2013-08-27 18:42:00,
2013-08-27 13:52:00,85.0,72.0,30.04,WSW,250,1.0,5.0,65,0.00,,,0.00,,2013-08-27 18:52:00,
2013-08-27 14:12:00,85.0,70.0,30.03,SW,228,3.0,5.0,61,0.00,,,0.00,,2013-08-27 19:12:00,
2013-08-27 14:22:00,84.0,72.0,30.03,East,100,0.0,3.0,68,0.00,,,0.00,,2013-08-27 19:22:00,
2013-08-27 14:42:00,85.0,71.0,30.03,ENE,67,1.0,5.0,63,0.00,,,0.00,,2013-08-27 19:42:00,
2013-08-27 14:52:00,84.0,69.0,30.02,ENE,60,1.0,7.0,60,0.00,,,0.00,,2013-08-27 19:52:00,
2013-08-27 15:12:00,86.0,68.0,30.01,NW,311,1.0,4.0,56,0.00,,,0.00,,2013-08-27 20:12:00,